Regional Weather Roundup
Issued by NWS Cleveland, OH

Home | Current Version | Previous Version | Graphics & Text | Print | Product List | Glossary On
Versions: 1 2 3 4 5 6 7 8 9 10 11 12 13 14 15 16 17 18 19 20 21 22 23 24 25 26 27 28 29 30 31 32 33 34 35 36 37 38 39 40 41 42 43 44 45 46 47 48 49 50
000
ASUS41 KCLE 241402
RWRCLE
OHIO REGIONAL WEATHER ROUNDUP
NATIONAL WEATHER SERVICE CLEVELAND, OH
1000 AM EDT THU JUL 24 2014

NOTE: "FAIR" INDICATES FEW OR NO CLOUDS BELOW 12,000 FEET WITH NO
SIGNIFICANT WEATHER AND/OR OBSTRUCTIONS TO VISIBILITY.

OHZ001>008-015>018-024>027-034-035-043-044-241500-
   NORTHWEST OHIO

CITY           SKY/WX    TMP DP  RH WIND       PRES   REMARKS
DEFIANCE       SUNNY     68  54  60 N7        30.13R
FINDLAY        SUNNY     68  57  68 N15       30.09S
TOLEDO EXPRESS SUNNY     67  54  63 NE8       30.11S
TOLEDO EXEC    SUNNY     68  55  63 NE12G20   30.11S
LIMA           SUNNY     65  58  78 N13       30.10S
$$

OHZ009>014-019>023-028>033-038-089-241500-
   NORTHEAST OHIO

CITY           SKY/WX    TMP DP  RH WIND       PRES   REMARKS
CLE-HOPKINS    PTSUNNY   69  56  62 NE14      30.08S
CLE-LAKEFRONT  MOSUNNY   68  58  70 NE9       30.05S
CUY CO. ARPT   PTSUNNY   68  61  77 NE7       30.07S
LORAIN-ELYRIA  MOSUNNY   69  57  65 NE10      30.07S
ASHTABULA      PTSUNNY   66  56  70 N6        30.07S
AKRON-CANTON   MOSUNNY   69  54  58 N10       30.05F
WOOSTER        SUNNY     68  56  65 N9        30.07S
MANSFIELD      MOSUNNY   67  57  70 NE9       30.08S
YOUNGSTOWN     PTSUNNY   67  55  65 N8        30.05S
$$

OHZ042-051>053-060>062-070>072-077>081-241500-
  SOUTHWEST OHIO

CITY           SKY/WX    TMP DP  RH WIND       PRES   REMARKS
CINC-COVINGTON CLOUDY    65  56  72 N14       30.06S
CINC-LUNKEN    PTSUNNY   65  57  75 N12       30.07R
HAMILTON       MOSUNNY   67  58  72 N9G17     30.08S
DAYTON         MOSUNNY   66  57  72 N13G21    30.09S
WRIGHT-PAT AFB PTSUNNY   65  57  75 NE14      30.08R
DAYTON GENERAL PTSUNNY   65  58  78 NE12      30.07S
WILMINGTON     PTSUNNY   65  57  75 NE17      30.05S
$$

OHZ036-037-039>041-045>050-054>059-063>069-073>076-082>088-241500-
  CENTRAL AND SOUTHEAST OHIO

CITY           SKY/WX    TMP DP  RH WIND       PRES   REMARKS
COLUMBUS       MOSUNNY   68  56  65 N12       30.05S
OSU AIRPORT    MOSUNNY   67  58  72 NE14      30.06S
BOLTON FIELD   SUNNY     66  59  77 N12       30.06
RICKENBACK AFB NOT AVBL
NEWARK         MOSUNNY   68  57  68 VRB6      30.04S
MARION         SUNNY     67  56  67 N12       30.08S
LANCASTER      SUNNY     68  57  68 NE10      30.05R
ZANESVILLE     MOSUNNY   66  56  70 NE8       30.03F
NEW PHILLY     MOSUNNY   68  60  75 N8        30.05S
$$


USA.gov is the U.S. government's official web portal to all federal, state and local government web resources and services.